Location: Devore Heights
(34.2372°N, 117.4156°W)
Time: 01:29:13
(UTC+00:00)

SR - Pass Details

Date: 13 September 2024
Orbit: 578 x 855 km, 66.7° (Epoch: 02 October)

Event Time Altitude Azimuth Distance (km) Brightness Sun altitude
Rises 05:32:43 0° 351° (N) 2,952 ? -40.9°
Enters shadow 05:33:59 - 358° (N) 2,549 ? -41.1°
Reaches altitude 10° 05:35:38 10° 11° (N) 2,090 - -41.4°
Maximum altitude 05:38:53 18° 54° (NE) 1,670 - -41.8°
Drops below altitude 10° 05:42:16 10° 97° (E) 2,208 - -42.3°
Sets 05:45:26 0° 116° (ESE) 3,187 - -42.8°
